sat.trackr.live / text

‹ back to catalog

LIZZIESAT-3 (LS-3)

NORAD 63233 · 2025-052Z

PAYLOAD ACTIVE UNKNOWN

§ Identity

Operator
Country
US
Launch date
2025-03-15
Launch site
AFWTR
Launch vehicle
Mass (kg)
RCS (m²)

External: N2YO · Heavens-Above · Gunter

§ Orbital elements

Epoch: 2026-05-25T03:26:52.973088Z

Period
94.64 min
Inclination
97.3945°
Eccentricity
0.0004381
Mean motion
15.21503213 rev/d
Perigee alt
498.3 km
Apogee alt
504.3 km
Semi-major
6,879.4 km
B*
1.9766e-4
RAAN
37.3907°
Arg perigee
231.7952°
Mean anomaly
128.2890°
Rev number
6,630

§ Raw data

LIZZIESAT-3 (LS-3)1 63233U 25052Z   26145.14366867  .00004379  00000+0  19766-3 0  99942 63233  97.3945  37.3907 0004381 231.7952 128.2890 15.21503213 66308

JSON: /api/v1/satellites/63233 · /tle

For live sub-satellite position, see the globe view (requires WebGL).

§ Visibility from observer

Set your observer location to see the next 7 days of passes ≥ 10°. The values pass through the URL so the page stays shareable.

No JS? Fill the form by hand. The geolocation button needs JavaScript.

§ Radio — SatNOGS DB

ModeDescriptionDownlinkUplink
BPSK S-band telemetry 2.201 GHz

1 transmitter · refreshed weekly from db.satnogs.org